CW6633 Weather Reports


Display with metric or nautical units.
time (UTC)temp
F
wind
direction
speed
MPH
gust
MPH
rain 1hr
in
rain 24hr
in
rain mn
in
humidity
%
barometer
mb
20240525224516 69 135 1.0 3.0 0.00 0.00 0.00 26 1003.9
20240525223537 67 135 1.0 4.0 0.00 0.00 0.00 27 1004.0
20240525222517 67 135 2.0 6.0 0.00 0.00 0.00 28 1003.8
20240525221516 67 135 1.0 3.0 0.00 0.00 0.00 31 1004.1
20240525220516 68 0.0 2.0 0.00 0.00 0.00 33 1004.5
20240525215516 66 135 1.0 5.0 0.00 0.00 0.00 40 1004.7
20240525214517 65 113 1.0 6.0 0.00 0.00 0.00 44 1004.6
20240525213517 66 135 2.0 7.0 0.00 0.00 0.00 35 1004.7
20240525212517 67 135 2.0 7.0 0.00 0.00 0.00 35 1004.6
20240525211517 67 135 1.0 4.0 0.00 0.00 0.00 35 1004.6
20240525210516 69 0.0 5.0 0.00 0.00 0.00 35 1004.9
20240525205516 70 135 1.0 5.0 0.00 0.00 0.00 34 1005.3
20240525204536 70 135 1.0 3.0 0.00 0.00 0.00 35 1005.2
20240525203517 67 135 2.0 7.0 0.00 0.00 0.00 38 1004.6
20240525202516 66 135 2.0 8.0 0.00 0.00 0.00 37 1004.6
20240525201517 65 135 2.0 6.0 0.00 0.00 0.00 39 1004.2
20240525200516 65 135 1.0 7.0 0.00 0.00 0.00 39 1004.7
20240525195516 66 135 2.0 5.0 0.00 0.00 0.00 38 1004.7
20240525194516 66 135 1.0 3.0 0.00 0.00 0.00 40 1004.8
20240525193556 66 135 1.0 5.0 0.00 0.00 0.00 37 1004.6
20240525192517 66 135 1.0 4.0 0.00 0.00 0.00 37 1005.0
20240525191516 67 135 1.0 5.0 0.00 0.00 0.00 42 1005.2
20240525190517 67 135 1.0 7.0 0.00 0.00 0.00 39 1005.6
20240525185516 68 0.0 3.0 0.00 0.00 0.00 34 1006.0
20240525184516 68 135 1.0 5.0 0.00 0.00 0.00 36 1006.3
20240525183516 68 135 1.0 4.0 0.00 0.00 0.00 37 1006.3
20240525182516 67 135 1.0 3.0 0.00 0.00 0.00 36 1006.3
20240525181515 67 158 2.0 5.0 0.00 0.00 0.00 35 1006.4
20240525180516 67 158 1.0 4.0 0.00 0.00 0.00 35 1006.4
20240525175516 66 135 1.0 6.0 0.00 0.00 0.00 37 1006.5
20240525174515 65 135 1.0 6.0 0.00 0.00 0.00 40 1006.7
20240525173516 64 135 1.0 4.0 0.00 0.00 0.00 40 1006.5
20240525172516 64 135 1.0 4.0 0.00 0.00 0.00 38 1006.5
20240525171515 66 0.0 3.0 0.00 0.00 0.00 37 1007.4
20240525170516 65 135 1.0 4.0 0.00 0.00 0.00 40 1007.0
20240525165517 64 135 1.0 5.0 0.00 0.00 0.00 39 1006.6
20240525164515 63 135 1.0 4.0 0.00 0.00 0.00 40 1006.7
20240525163517 63 135 2.0 6.0 0.00 0.00 0.00 40 1006.3
20240525162557 62 0.0 4.0 0.00 0.00 0.00 41 1006.5
20240525161517 62 135 2.0 7.0 0.00 0.00 0.00 42 1006.6
20240525160516 62 113 2.0 4.0 0.00 0.00 0.00 40 1007.3
20240525155515 61 135 1.0 6.0 0.00 0.00 0.00 42 1007.5
20240525154517 62 0.0 3.0 0.00 0.00 0.00 40 1007.4
20240525153517 61 135 1.0 4.0 0.00 0.00 0.00 40 1007.6
20240525152516 61 113 1.0 6.0 0.00 0.00 0.00 40 1008.2
20240525151516 61 113 1.0 4.0 0.00 0.00 0.00 42 1008.0
20240525150516 60 135 2.0 7.0 0.00 0.00 0.00 41 1008.2
20240525145515 59 135 1.0 3.0 0.00 0.00 0.00 43 1008.6
20240525144515 59 135 2.0 7.0 0.00 0.00 0.00 42 1008.6
20240525143515 58 135 2.0 5.0 0.00 0.00 0.00 43 1008.8
20240525142515 58 135 1.0 4.0 0.00 0.00 0.00 43 1009.2
20240525141519 57 0.0 2.0 0.00 0.00 0.00 43 1008.8
20240525140515 55 0.0 2.0 0.00 0.00 0.00 45 1009.0
20240525135517 55 135 1.0 4.0 0.00 0.00 0.00 44 1008.9
20240525134515 53 0.0 2.0 0.00 0.00 0.00 48 1008.9
20240525133538 52 0.0 1.0 0.00 0.00 0.00 48 1008.6
20240525132516 51 0.0 1.0 0.00 0.00 0.00 51 1008.7
20240525131518 49 0.0 3.0 0.00 0.00 0.00 52 1008.1
20240525130517 48 0.0 1.0 0.00 0.00 0.00 55 1007.6
20240525125517 47 0.0 1.0 0.00 0.00 0.00 57 1007.3
20240525124517 45 0.0 1.0 0.00 0.00 0.00 60 1007.3
20240525123517 44 0.0 0.0 0.00 0.00 0.00 62 1007.2
20240525122518 45 0.0 0.0 0.00 0.00 0.00 59 1007.3
20240525121517 46 0.0 1.0 0.00 0.00 0.00 58 1007.2
20240525120518 45 0.0 0.0 0.00 0.00 0.00 60 1006.7
20240525115558 43 0.0 0.0 0.00 0.00 0.00 62 1006.4
20240525114517 43 0.0 0.0 0.00 0.00 0.00 62 1006.8
20240525113517 44 0.0 0.0 0.00 0.00 0.00 61 1007.3
20240525112518 43 0.0 0.0 0.00 0.00 0.00 63 1007.4
20240525111518 44 0.0 0.0 0.00 0.00 0.00 62 1007.4
20240525110517 43 0.0 1.0 0.00 0.00 0.00 63 1007.5
20240525105517 43 0.0 0.0 0.00 0.00 0.00 64 1007.8
20240525104537 43 0.0 0.0 0.00 0.00 0.00 63 1008.0
20240525103517 44 0.0 0.0 0.00 0.00 0.00 62 1008.1
20240525102517 43 0.0 0.0 0.00 0.00 0.00 63 1008.1
20240525101517 43 0.0 0.0 0.00 0.00 0.00 62 1007.9
20240525100517 43 0.0 0.0 0.00 0.00 0.00 62 1007.9
20240525095517 44 0.0 0.0 0.00 0.00 0.00 62 1008.0
20240525094537 44 0.0 0.0 0.00 0.00 0.00 61 1008.0
20240525093517 44 0.0 0.0 0.00 0.00 0.00 60 1008.2
20240525092538 45 0.0 0.0 0.00 0.00 0.00 59 1008.6
20240525091517 45 0.0 0.0 0.00 0.00 0.00 58 1008.7
20240525090517 46 0.0 0.0 0.00 0.00 0.00 57 1008.8
20240525085517 46 0.0 0.0 0.00 0.00 0.00 56 1009.0
20240525084517 47 0.0 0.0 0.00 0.00 0.00 55 1009.6
20240525083517 46 0.0 0.0 0.00 0.00 0.00 56 1009.2
20240525082517 46 0.0 0.0 0.00 0.00 0.00 56 1009.3
20240525081517 46 0.0 0.0 0.00 0.00 0.00 56 1009.4
20240525080557 47 0.0 0.0 0.00 0.00 0.00 55 1009.9
20240525075537 47 0.0 0.0 0.00 0.00 0.00 54 1009.6
20240525074518 47 0.0 0.0 0.00 0.00 0.00 54 1009.8
20240525073517 47 0.0 0.0 0.00 0.00 0.00 54 1009.8
20240525072517 48 0.0 0.0 0.00 0.00 0.00 53 1010.1
20240525071517 48 0.0 0.0 0.00 0.00 0.00 52 1010.1
20240525070517 50 0.0 0.0 0.00 0.00 0.00 50 1010.3
20240525065517 50 0.0 0.0 0.00 0.00 0.00 50 1010.9
20240525064537 51 0.0 0.0 0.00 0.00 0.00 48 1011.1
20240525063517 51 0.0 0.0 0.00 0.00 0.00 47 1011.3
20240525062517 52 0.0 0.0 0.00 0.00 0.00 48 1011.3
20240525061538 52 0.0 0.0 0.00 0.00 0.00 46 1011.6
20240525060519 52 0.0 0.0 0.00 0.00 0.00 45 1011.4
20240525055517 53 0.0 0.0 0.00 0.00 0.00 45 1011.6
20240525054516 53 0.0 0.0 0.00 0.00 0.00 46 1011.6
20240525053537 53 0.0 0.0 0.00 0.00 0.00 45 1011.7
20240525052518 53 0.0 0.0 0.00 0.00 0.00 46 1011.9
20240525051538 54 0.0 0.0 0.00 0.00 0.00 44 1011.9
20240525050516 54 0.0 0.0 0.00 0.00 0.00 43 1012.3
20240525045518 53 0.0 0.0 0.00 0.00 0.00 44 1012.4
20240525044517 53 0.0 0.0 0.00 0.00 0.00 44 1012.1
20240525043517 53 0.0 0.0 0.00 0.00 0.00 45 1011.8
20240525042517 53 0.0 0.0 0.00 0.00 0.00 44 1012.2
20240525041518 54 0.0 0.0 0.00 0.00 0.00 44 1011.8
20240525040517 54 0.0 0.0 0.00 0.00 0.00 42 1012.0
20240525035516 55 0.0 0.0 0.00 0.00 0.00 41 1012.1
20240525034557 56 0.0 0.0 0.00 0.00 0.00 39 1012.0
20240525033516 56 0.0 0.0 0.00 0.00 0.00 38 1011.9
20240525032517 57 0.0 0.0 0.00 0.00 0.00 36 1011.5
20240525031517 57 0.0 2.0 0.00 0.00 0.00 36 1011.3
20240525030516 58 0.0 0.0 0.00 0.00 0.00 36 1011.1
20240525025537 59 0.0 0.0 0.00 0.00 0.00 32 1010.9
20240525024518 60 0.0 0.0 0.00 0.00 0.00 29 1010.6
20240525023517 61 0.0 2.0 0.00 0.00 0.00 29 1010.6
20240525022516 62 158 1.0 4.0 0.00 0.00 0.00 27 1010.6
20240525021538 63 0.0 4.0 0.00 0.00 0.00 27 1010.7
20240525020538 64 135 1.0 3.0 0.00 0.00 0.00 26 1010.8
20240525015536 64 158 2.0 6.0 0.00 0.00 0.00 25 1010.4
20240525014518 65 158 1.0 7.0 0.00 0.00 0.00 24 1010.5
20240525013516 66 158 2.0 5.0 0.00 0.00 0.00 24 1010.3
20240525012536 65 135 1.0 6.0 0.00 0.00 0.00 24 1009.8
20240525011516 65 0.0 1.0 0.00 0.00 0.00 31 1009.8
20240525010517 64 158 1.0 3.0 0.00 0.00 0.00 31 1009.3
20240525005536 65 203 1.0 5.0 0.00 0.00 0.00 31 1009.1
20240525004517 66 203 1.0 3.0 0.00 0.00 0.00 30 1008.7
20240525003517 66 203 2.0 5.0 0.00 0.00 0.00 31 1009.1
20240525002518 66 0 1.0 5.0 0.00 0.00 0.00 31 1008.6
20240525001517 65 23 1.0 5.0 0.00 0.00 0.00 32 1008.5
20240525000516 64 225 1.0 7.0 0.00 0.00 0.00 33 1008.1
20240524235518 65 225 2.0 8.0 0.00 0.00 0.00 33 1008.1
20240524234536 65 45 1.0 4.0 0.00 0.00 0.00 33 1008.6
20240524233516 66 225 2.0 7.0 0.00 0.00 0.00 31 1009.1
20240524232517 67 225 1.0 7.0 0.00 0.00 0.00 32 1009.5
20240524231516 67 203 2.0 4.0 0.00 0.00 0.00 30 1009.8
20240524230517 68 225 2.0 7.0 0.00 0.00 0.00 30 1010.2
20240524225517 69 225 2.0 5.0 0.00 0.00 0.00 29 1011.0